This is the latest recevied weather packets stored in our database for station/object KF0FSA. If no packets are shown the sender has not sent any weather packets the latest 10 day(s).
| Time | Temp. | Humidity | Pressure | Rain* | Wind** | Luminosity | Snow |
|---|---|---|---|---|---|---|---|
| 1777516306 | 8.89° C | 71% | 963.6 hPa | 0 mm | - | 0 W/m² | - |
| 1777516006 | 9.44° C | 70% | 963.5 hPa | 0 mm | - | 0 W/m² | - |
| 1777515704 | 9.44° C | 69% | 963.5 hPa | 0 mm | - | 0 W/m² | - |
| 1777515403 | 9.44° C | 69% | 963.4 hPa | 0 mm | - | 0 W/m² | - |
| 1777515104 | 9.44° C | 69% | 963.3 hPa | 0 mm | - | 0 W/m² | - |
| 1777514928 | 9.44° C | 68% | 963.3 hPa | 0 mm | - | 0 W/m² | - |
| 1777514505 | 9.44° C | 68% | 963.3 hPa | 0 mm | - | 0 W/m² | - |
| 1777514203 | 9.44° C | 67% | 963.3 hPa | 0 mm | - | 0 W/m² | - |
| 1777513904 | 9.44° C | 66% | 963.3 hPa | 0 mm | - | 0 W/m² | - |
| 1777513604 | 9.44° C | 66% | 963.3 hPa | 0 mm | - | 0 W/m² | - |
| 1777513128 | 10° C | 64% | 963.2 hPa | 0 mm | - | 0 W/m² | - |
| 1777512828 | 10° C | 64% | 963.2 hPa | 0 mm | - | 3 W/m² | - |
| 1777512404 | 10.56° C | 64% | 963.2 hPa | 0 mm | - | 5 W/m² | - |
| 1777512104 | 10.56° C | 63% | 963.2 hPa | 0 mm | - | 7 W/m² | - |
| 1777511804 | 10.56° C | 62% | 963.1 hPa | 0 mm | - | 10 W/m² | - |
| 1777511506 | 11.11° C | 61% | 963.1 hPa | 0 mm | - | 14 W/m² | - |
| 1777510127 | 12.22° C | 56% | 963 hPa | 0 mm | - | 44 W/m² | - |
| 1777509402 | 12.78° C | 54% | 963 hPa | 0 mm | - | 62 W/m² | - |
| 1777509102 | 12.78° C | 55% | 963.1 hPa | 0 mm | - | 72 W/m² | - |
| 1777508501 | 12.78° C | 54% | 963.1 hPa | 0 mm | - | 98 W/m² | - |
| 1777507902 | 12.78° C | 53% | 963.1 hPa | 0 mm | - | 146 W/m² | - |
| 1777506400 | 13.33° C | 51% | 963.3 hPa | 0 mm | - | 192 W/m² | - |
| 1777502491 | 12.78° C | 51% | 963.2 hPa | 0 mm | - | 544 W/m² | - |
| 1777501592 | 13.33° C | 49% | 963.4 hPa | 0 mm | - | 91 W/m² | - |
| 1777500689 | 13.33° C | 43% | 963.6 hPa | 0 mm | - | 143 W/m² | - |
* Rain latest hour (hover to see other rain measurements)
** Current wind speed in m/s (hover to see current wind gust speed)